Regional Weather Roundup
Issued by NWS

Home | Current Version | Previous Version | Graphics & Text | Print | Product List | Glossary On
Versions: 1 2 3 4 5 6 7 8 9 10 11 12 13 14 15 16 17 18 19 20 21 22 23 24 25 26 27 28 29 30 31 32 33 34 35 36 37 38 39 40 41 42 43 44 45 46 47 48 49 50
000
ASUS43 KLMK 140610
RWRKY
KENTUCKY REGIONAL WEATHER ROUNDUP
NATIONAL WEATHER SERVICE LOUISVILLE KY
200 AM EDT MON JUL 14 2014

NOTE "FAIR" INDICATES FEW OR NO CLOUDS BELOW 12,000 FEET
WITH NO SIGNIFICANT WEATHER AND/OR OBSTRUCTIONS TO VISIBILITY.

KYZ001>023-026-027-061>063-070>075-140700-
WESTERN AND SOUTH CENTRAL KENTUCKY

CITY           SKY/WX    TMP DP  RH WIND       PRES   REMARKS
PADUCAH        PTCLDY    79  74  84 SW5       29.93S
HENDERSON      CLOUDY    72  68  88 NW10      29.94R
OWENSBORO      MOCLDY    73  72  97 SW7       29.93F
HOPKINSVILLE   PTCLDY    79  74  86 SW7       29.96F
BOWLING GREEN  CLOUDY    81  71  71 SW6       29.96F
GLASGOW        MOCLDY    78  70  76 CALM      29.97F
$$

KYZ024-025-028>034-038-045-046-053-140700-
NORTH CENTRAL KENTUCKY

CITY           SKY/WX    TMP DP  RH WIND       PRES   REMARKS
LOUISVILLE/SDF TSTM      74  72  93 SW5       29.93F
LOUISVILLE/LOU CLOUDY    73  71  93 S3        29.94F
FORT KNOX      LGT RAIN  72  70  94 W6        29.95R FOG
$$

KYZ035>037-039>044-047>052-055>060-089>105-140700-
NORTHEAST KENTUCKY

CITY           SKY/WX    TMP DP  RH WIND       PRES   REMARKS
LEXINGTON      LGT RAIN  72  68  87 SW10      29.99F
COVINGTON      PTCLDY    71  69  93 S5        29.94S FOG
FRANKFORT      LGT RAIN  71  69  93 SW10      29.96F
$$

KYZ054-064>069-076>088-106>120-140700-
SOUTHEAST KENTUCKY

CITY           SKY/WX    TMP DP  RH WIND       PRES   REMARKS
JACKSON        PTCLDY    77  67  71 VRB3      30.00S
LONDON         CLEAR     79  69  71 SW6       30.01F
SOMERSET       CLOUDY    77  68  73 CALM      30.01F
MIDDLESBORO    PTCLDY    70  69  96 CALM      30.03F
MONTICELLO     CLEAR     78  72  82 SW6       30.02S
$$



USA.gov is the U.S. government's official web portal to all federal, state and local government web resources and services.